GW3491 Weather Reports


Display with metric or nautical units.
time (UTC)temp
F
wind
direction
speed
MPH
gust
MPH
rain 1hr
in
rain 24hr
in
rain mn
in
humidity
%
barometer
mb
20260505111631 53 280 0.0 0.0 0.00 0.00 0.00 20 1000.8
20260505111128 53 291 0.0 0.0 0.00 0.00 0.00 20 1001.1
20260505110624 53 291 0.0 0.0 0.00 0.00 0.00 20 1001.1
20260505110121 52 289 0.0 0.0 0.00 0.00 0.00 20 1001.1
20260505102057 50 295 0.0 0.0 0.00 0.00 0.00 22 1001.1
20260505101555 50 291 0.0 0.0 0.00 0.00 0.00 22 1001.1
20260505101051 50 291 0.0 1.0 0.00 0.00 0.00 22 1001.1
20260505100548 50 293 0.0 1.0 0.00 0.00 0.00 21 1001.1
20260505100045 50 292 0.0 0.0 0.00 0.00 0.00 21 1001.1
20260505095541 51 295 0.0 0.0 0.00 0.00 0.00 21 1001.1
20260505095038 51 292 0.0 0.0 0.00 0.00 0.00 21 1000.8
20260505094534 51 289 0.0 0.0 0.00 0.00 0.00 21 1001.1
20260505094030 51 290 0.0 0.0 0.00 0.00 0.00 21 1001.4
20260505093527 51 290 0.0 0.0 0.00 0.00 0.00 21 1001.1
20260505093024 51 290 0.0 0.0 0.00 0.00 0.00 21 1001.1
20260505092522 51 294 0.0 0.0 0.00 0.00 0.00 21 1001.1
20260505092020 51 295 0.0 0.0 0.00 0.00 0.00 21 1001.1
20260505091516 51 292 0.0 0.0 0.00 0.00 0.00 21 1001.1
20260505091015 51 292 0.0 0.0 0.00 0.00 0.00 21 1000.8
20260505090512 51 288 0.0 0.0 0.00 0.00 0.00 21 1000.8
20260505090010 51 287 0.0 0.0 0.00 0.00 0.00 21 1000.8
20260505085508 51 287 0.0 0.0 0.00 0.00 0.00 21 1001.1
20260505085006 51 290 0.0 0.0 0.00 0.00 0.00 21 1001.1
20260505084504 52 291 0.0 0.0 0.00 0.00 0.00 21 1001.4
20260505084001 52 294 0.0 0.0 0.00 0.00 0.00 20 1001.1
20260505083458 52 292 0.0 0.0 0.00 0.00 0.00 19 1001.1
20260505082954 52 293 0.0 0.0 0.00 0.00 0.00 19 1001.1
20260505082450 52 293 0.0 0.0 0.00 0.00 0.00 19 1001.1
20260505081947 53 289 0.0 0.0 0.00 0.00 0.00 19 1001.4
20260505081444 53 290 0.0 0.0 0.00 0.00 0.00 19 1001.4
20260505080941 53 314 0.0 0.0 0.00 0.00 0.00 19 1001.1
20260505080437 53 285 0.0 0.0 0.00 0.00 0.00 19 1001.4
20260505075932 53 290 0.0 0.0 0.00 0.00 0.00 19 1001.4
20260505075430 54 291 0.0 1.0 0.00 0.00 0.00 18 1001.4
20260505074927 54 286 0.0 1.0 0.00 0.00 0.00 18 1001.4
20260505074424 55 290 0.0 0.0 0.00 0.00 0.00 18 1001.4
20260505073921 55 291 0.0 0.0 0.00 0.00 0.00 18 1001.4
20260505073419 55 293 0.0 1.0 0.00 0.00 0.00 17 1001.4
20260505072916 55 263 2.0 3.0 0.00 0.00 0.00 20 1001.4
20260505072412 56 266 2.0 3.0 0.00 0.00 0.00 20 1001.4
20260505071908 56 278 1.0 4.0 0.00 0.00 0.00 20 1001.4
20260505071404 56 250 1.0 6.0 0.00 0.00 0.00 20 1001.4
20260505070903 56 270 1.0 3.0 0.00 0.00 0.00 20 1001.4
20260505070358 56 256 2.0 3.0 0.00 0.00 0.00 20 1001.4
20260505065854 56 284 1.0 3.0 0.00 0.00 0.00 20 1001.4
20260505065351 57 258 2.0 4.0 0.00 0.00 0.00 20 1001.4
20260505064848 57 277 2.0 4.0 0.00 0.00 0.00 20 1001.4
20260505064345 57 250 4.0 6.0 0.00 0.00 0.00 19 1001.4
20260505063844 57 255 4.0 8.0 0.00 0.00 0.00 19 1001.4
20260505063339 57 259 4.0 6.0 0.00 0.00 0.00 19 1001.4
20260505062836 57 274 1.0 6.0 0.00 0.00 0.00 19 1001.8
20260505062333 57 258 2.0 7.0 0.00 0.00 0.00 19 1001.4
20260505061830 57 267 4.0 4.0 0.00 0.00 0.00 19 1001.1
20260505061328 57 205 3.0 6.0 0.00 0.00 0.00 18 1001.4
20260505060825 57 295 2.0 6.0 0.00 0.00 0.00 19 1001.4
20260505060322 57 263 3.0 7.0 0.00 0.00 0.00 18 1001.1
20260505055818 57 297 2.0 3.0 0.00 0.00 0.00 19 1001.4
20260505055314 57 249 1.0 3.0 0.00 0.00 0.00 19 1001.4
20260505054812 57 271 3.0 7.0 0.00 0.00 0.00 19 1001.4
20260505054309 57 291 1.0 3.0 0.00 0.00 0.00 21 1001.4
20260505053807 57 268 1.0 3.0 0.00 0.00 0.00 21 1001.4
20260505053304 57 255 2.0 3.0 0.00 0.00 0.00 21 1001.4
20260505052800 58 287 1.0 4.0 0.00 0.00 0.00 19 1001.4
20260505052257 58 270 1.0 3.0 0.00 0.00 0.00 19 1001.4
20260505051754 58 243 2.0 2.0 0.00 0.00 0.00 19 1001.4
20260505051252 58 245 1.0 3.0 0.00 0.00 0.00 19 1001.4
20260505050750 58 149 2.0 2.0 0.00 0.00 0.00 19 1001.4
20260505050248 58 237 2.0 3.0 0.00 0.00 0.00 19 1001.8
20260505041718 59 237 1.0 4.0 0.00 0.00 0.00 19 1001.4
20260505041215 59 248 0.0 2.0 0.00 0.00 0.00 19 1001.4
20260505040712 59 276 1.0 2.0 0.00 0.00 0.00 19 1001.4
20260505040209 58 291 0.0 2.0 0.00 0.00 0.00 18 1001.4
20260505035706 59 287 0.0 0.0 0.00 0.00 0.00 18 1001.1
20260505035202 59 281 1.0 6.0 0.00 0.00 0.00 18 1001.1
20260505034659 60 268 1.0 2.0 0.00 0.00 0.00 17 1001.1
20260505034156 60 280 0.0 3.0 0.00 0.00 0.00 17 1000.8
20260505033652 60 184 3.0 3.0 0.00 0.00 0.00 17 1000.8
20260505033151 60 278 1.0 4.0 0.00 0.00 0.00 17 1001.1
20260505032649 60 283 1.0 3.0 0.00 0.00 0.00 17 1000.8
20260505032144 60 227 2.0 3.0 0.00 0.00 0.00 17 1001.1
20260505031642 60 268 0.0 2.0 0.00 0.00 0.00 17 1001.1
20260505031138 60 271 1.0 3.0 0.00 0.00 0.00 17 1000.8
20260505030635 60 286 1.0 3.0 0.00 0.00 0.00 18 1001.1
20260505030131 60 143 2.0 4.0 0.00 0.00 0.00 17 1000.8
20260505025627 59 227 1.0 3.0 0.00 0.00 0.00 17 1000.8
20260505025126 59 293 1.0 2.0 0.00 0.00 0.00 18 1001.1
20260505024622 57 280 0.0 2.0 0.00 0.00 0.00 18 1001.1
20260505024120 56 293 0.0 0.0 0.00 0.00 0.00 20 1001.1
20260505023617 56 280 0.0 1.0 0.00 0.00 0.00 19 1000.8
20260505023114 57 278 0.0 0.0 0.00 0.00 0.00 19 1000.8
20260505022612 59 268 0.0 1.0 0.00 0.00 0.00 18 1000.8
20260505022109 60 264 0.0 1.0 0.00 0.00 0.00 18 1000.8
20260505021605 60 283 0.0 1.0 0.00 0.00 0.00 18 1000.8
20260505021102 60 289 0.0 0.0 0.00 0.00 0.00 18 1000.8
20260505020602 60 284 0.0 0.0 0.00 0.00 0.00 18 1000.8
20260505020059 60 33 1.0 1.0 0.00 0.00 0.00 18 1000.8
20260505015556 60 282 0.0 0.0 0.00 0.00 0.00 17 1000.4
20260505015053 60 286 0.0 0.0 0.00 0.00 0.00 17 1000.8
20260505014550 60 285 0.0 0.0 0.00 0.00 0.00 17 1000.8
20260505014047 60 289 0.0 1.0 0.00 0.00 0.00 17 1000.8
20260505013544 61 286 0.0 1.0 0.00 0.00 0.00 17 1000.4
20260505013041 61 284 0.0 1.0 0.00 0.00 0.00 17 1000.4
20260505012539 61 286 0.0 0.0 0.00 0.00 0.00 16 1000.4
20260505012036 62 270 0.0 1.0 0.00 0.00 0.00 16 1000.1
20260505011531 62 285 0.0 1.0 0.00 0.00 0.00 16 1000.1
20260505011029 62 267 0.0 1.0 0.00 0.00 0.00 16 1000.1
20260505010524 62 290 0.0 1.0 0.00 0.00 0.00 17 1000.1
20260505010021 62 284 0.0 0.0 0.00 0.00 0.00 17 1000.1
20260505005517 62 291 0.0 0.0 0.00 0.00 0.00 17 1000.1
20260505005015 62 289 0.0 0.0 0.00 0.00 0.00 17 999.7
20260505004512 62 288 0.0 0.0 0.00 0.00 0.00 16 999.7
20260505004008 63 286 0.0 0.0 0.00 0.00 0.00 15 999.7
20260505003506 62 288 0.0 0.0 0.00 0.00 0.00 16 999.7
20260505003003 63 282 0.0 0.0 0.00 0.00 0.00 15 999.7
20260505002458 63 277 0.0 0.0 0.00 0.00 0.00 15 999.1
20260505001957 64 266 0.0 1.0 0.00 0.00 0.00 18 999.1
20260505001454 65 284 0.0 0.0 0.00 0.00 0.00 21 999.4
20260505000950 64 292 0.0 1.0 0.00 0.00 0.00 20 999.1
20260505000449 64 289 0.0 1.0 0.00 0.00 0.00 20 999.1
20260504235945 64 286 0.0 0.0 0.00 0.00 0.00 20 999.4
20260504235442 65 290 0.0 0.0 0.00 0.00 0.00 21 999.1
20260504234939 65 290 0.0 0.0 0.00 0.00 0.00 20 999.1
20260504234436 66 290 0.0 0.0 0.00 0.00 0.00 19 999.1
20260504233932 67 273 1.0 3.0 0.00 0.00 0.00 19 998.7
20260504233428 67 290 0.0 2.0 0.00 0.00 0.00 19 999.1
20260504232925 67 256 2.0 3.0 0.00 0.00 0.00 19 999.1
20260504232423 67 281 2.0 3.0 0.00 0.00 0.00 18 998.7
20260504231919 68 253 3.0 6.0 0.00 0.00 0.00 20 998.7
20260504231416 68 236 2.0 4.0 0.00 0.00 0.00 18 998.7
20260504230912 68 264 4.0 4.0 0.00 0.00 0.00 18 998.7
20260504230409 68 263 4.0 4.0 0.00 0.00 0.00 18 998.7
20260504225908 68 258 2.0 4.0 0.00 0.00 0.00 19 998.4
20260504225359 68 284 3.0 6.0 0.00 0.00 0.00 18 998.4
20260504224856 68 255 3.0 7.0 0.00 0.00 0.00 16 998.1
20260504224353 69 254 4.0 6.0 0.00 0.00 0.00 16 998.1
20260504223850 69 257 4.0 7.0 0.00 0.00 0.00 15 998.1
20260504223345 69 266 5.0 8.0 0.00 0.00 0.00 15 998.4
20260504222842 69 258 6.0 9.0 0.00 0.00 0.00 14 998.1
20260504222339 69 243 5.0 6.0 0.00 0.00 0.00 14 998.1
20260504221837 69 275 2.0 3.0 0.00 0.00 0.00 17 998.1
20260504221333 69 257 3.0 6.0 0.00 0.00 0.00 18 998.1
20260504220831 69 255 6.0 15.0 0.00 0.00 0.00 18 998.4
20260504220327 68 259 3.0 9.0 0.00 0.00 0.00 17 998.1
20260504215824 68 278 4.0 10.0 0.00 0.00 0.00 20 998.1
20260504215321 68 266 5.0 8.0 0.00 0.00 0.00 19 998.1
20260504214817 65 263 3.0 4.0 0.00 0.00 0.00 20 998.1
20260504214315 69 255 4.0 6.0 0.00 0.00 0.00 17 998.1
20260504213811 68 264 3.0 7.0 0.00 0.00 0.00 19 998.1
20260504213307 68 274 4.0 7.0 0.00 0.00 0.00 19 998.1
20260504212804 68 270 5.0 10.0 0.00 0.00 0.00 18 998.1
20260504212300 68 269 3.0 10.0 0.00 0.00 0.00 16 998.4
20260504211758 69 292 4.0 9.0 0.00 0.00 0.00 13 998.1
20260504211254 69 265 7.0 10.0 0.00 0.00 0.00 18 998.1
20260504210752 68 259 4.0 7.0 0.00 0.00 0.00 17 998.1
20260504210249 68 269 5.0 7.0 0.00 0.00 0.00 18 998.1
20260504205746 67 260 6.0 9.0 0.00 0.00 0.00 19 997.7
20260504205243 67 263 4.0 8.0 0.00 0.00 0.00 19 998.1
20260504204741 67 261 6.0 7.0 0.00 0.00 0.00 19 998.1
20260504204239 67 264 5.0 6.0 0.00 0.00 0.00 19 998.1
20260504203739 67 277 3.0 4.0 0.00 0.00 0.00 19 997.7
20260504203235 67 270 2.0 4.0 0.00 0.00 0.00 19 998.1
20260504202735 66 273 4.0 6.0 0.00 0.00 0.00 20 998.1
20260504202233 66 290 3.0 4.0 0.00 0.00 0.00 19 998.1
20260504201730 66 287 3.0 8.0 0.00 0.00 0.00 19 998.1
20260504201227 66 287 4.0 8.0 0.00 0.00 0.00 19 998.1
20260504200725 67 257 8.0 9.0 0.00 0.00 0.00 19 998.1
20260504200220 67 291 4.0 7.0 0.00 0.00 0.00 20 998.1
20260504195717 68 257 5.0 7.0 0.00 0.00 0.00 19 998.1
20260504195213 67 265 7.0 10.0 0.00 0.00 0.00 19 998.1
20260504194710 68 271 3.0 7.0 0.00 0.00 0.00 18 998.4
20260504194206 67 269 5.0 9.0 0.00 0.00 0.00 19 998.1
20260504193703 68 256 4.0 8.0 0.00 0.00 0.00 20 998.1
20260504193200 67 247 8.0 13.0 0.00 0.00 0.00 19 998.4
20260504192658 66 254 5.0 8.0 0.00 0.00 0.00 19 998.1
20260504192156 66 262 7.0 8.0 0.00 0.00 0.00 20 998.1
20260504191655 66 244 7.0 11.0 0.00 0.00 0.00 19 998.4
20260504191150 66 258 5.0 8.0 0.00 0.00 0.00 18 998.4
20260504190646 66 291 3.0 6.0 0.00 0.00 0.00 19 998.4
20260504190143 66 291 6.0 9.0 0.00 0.00 0.00 20 998.4
20260504185640 66 265 7.0 10.0 0.00 0.00 0.00 20 998.4
20260504185136 66 291 3.0 6.0 0.00 0.00 0.00 19 998.4
20260504184633 66 266 6.0 9.0 0.00 0.00 0.00 20 998.4
20260504184127 65 257 5.0 7.0 0.00 0.00 0.00 21 998.4
20260504183625 65 285 4.0 7.0 0.00 0.00 0.00 21 998.4
20260504183122 65 289 6.0 8.0 0.00 0.00 0.00 21 998.4
20260504182620 65 277 9.0 11.0 0.00 0.00 0.00 20 998.1
20260504182117 64 254 7.0 9.0 0.00 0.00 0.00 18 998.4
20260504181614 65 265 9.0 14.0 0.00 0.00 0.00 20 998.4
20260504181112 65 258 11.0 15.0 0.00 0.00 0.00 20 998.4
20260504180611 65 253 9.0 11.0 0.00 0.00 0.00 20 998.4
20260504180109 65 255 7.0 11.0 0.00 0.00 0.00 20 998.4
20260504175606 65 265 4.0 8.0 0.00 0.00 0.00 20 998.4
20260504175103 65 257 9.0 10.0 0.00 0.00 0.00 20 998.4
20260504174601 65 250 7.0 9.0 0.00 0.00 0.00 20 998.1
20260504174057 65 257 8.0 10.0 0.00 0.00 0.00 20 998.4
20260504173554 65 267 4.0 8.0 0.00 0.00 0.00 20 998.1
20260504173052 64 247 6.0 13.0 0.00 0.00 0.00 20 998.4
20260504172548 64 176 4.0 10.0 0.00 0.00 0.00 20 998.4
20260504172044 64 284 1.0 8.0 0.00 0.00 0.00 18 998.4
20260504171541 64 277 3.0 7.0 0.00 0.00 0.00 18 998.4
20260504171038 64 270 6.0 8.0 0.00 0.00 0.00 18 998.4
20260504170534 64 264 7.0 8.0 0.00 0.00 0.00 18 998.4
20260504150918 60 292 9.0 9.0 0.00 0.00 0.00 17 999.1
20260504150415 60 268 9.0 10.0 0.00 0.00 0.00 18 999.4
20260504140835 56 263 9.0 10.0 0.00 0.00 0.00 20 1000.4
20260504140331 55 254 2.0 9.0 0.00 0.00 0.00 18 1000.4
20260504130759 53 262 6.0 6.0 0.00 0.00 0.00 18 1000.8
20260504130255 53 252 4.0 8.0 0.00 0.00 0.00 18 1000.8
20260504120219 48 258 4.0 4.0 0.00 0.00 0.00 22 1001.1